Regional Weather Roundup
Issued by NWS

Home | Current Version | Previous Version | Text Only | Print | Product List | Glossary On
Versions: 1 2 3 4 5 6 7 8 9 10 11 12 13 14 15 16 17 18 19 20 21 22 23 24 25 26 27 28 29 30 31 32 33 34 35 36 37 38 39 40 41 42 43 44 45 46 47 48 49 50
000
ASUS43 KDTX 300401
RWRMI
MICHIGAN HOURLY REGIONAL WEATHER ROUNDUP
NATIONAL WEATHER SERVICE DETROIT/PONTIAC MI
1200 AM EDT SAT JUL 30 2016

NOTE: "FAIR" INDICATES FEW OR NO CLOUDS BELOW 12,000 FEET WITH NO
SIGNIFICANT WEATHER AND/OR OBSTRUCTION TO VISIBILITY.

MIZ047>049-052>055-059>063-066>070-074>076-081>083-300500-
SOUTHEAST LOWER MICHIGAN

CITY           SKY/WX    TMP DP  RH WIND       PRES   REMARKS
ADRIAN         CLOUDY    70  67  90 E8        29.98S
ALMA           CLOUDY    66  60  82 NE5       30.03F
ANN ARBOR      CLOUDY    71  57  61 N6        29.99R
BAD AXE        MOCLDY    66  58  76 NE6       30.04S
CARO           MOCLDY    64  58  80 CALM      30.02S
DETROIT CITY   CLOUDY    70  59  68 NE10      29.98F
DETROIT        CLOUDY    72  55  55 NE9       29.98F
FLINT          CLOUDY    70  56  61 NE8       30.01F
GROSSE ILE     CLOUDY    72  60  67 NE7       29.96F
HILLSDALE      RAIN      68  65  92 SE5       29.99S
HOWELL         PTCLDY    67  56  69 N3        30.00S

CITY           SKY/WX    TMP DP  RH WIND       PRES   REMARKS
JACKSON        CLOUDY    69  58  67 E7        29.99S
LAMBERTVILLE   CLOUDY    72  66  81 NE3       29.97S
LANSING        CLOUDY    67  56  67 NE8       30.01S
LAPEER         FAIR      64  57  76 CALM      30.01F
MASON          CLOUDY    66  55  68 NE6       30.00S
MONROE         CLOUDY    71  63  74 NE7       29.96S
MT. CLEMENS    CLOUDY    67  60  77 N6        29.97S
PONTIAC        MOCLDY    67  56  67 NE8       30.00S
PORT HOPE        N/A     71  61  70 NE18      30.03S
PORT HURON     CLOUDY    66  63  88 NW3       29.99S
TRI CITIES     CLOUDY    66  60  81 NE6       30.03F
MIDLAND        MOCLDY    64  56  75 N6        30.03F
TROY           CLOUDY    71  56  59 N3        30.01S
SAGINAW HB     CLOUDY    64  55  72 N6        30.02F
$$
MIZ043>046-050>051-056>058-064>065-071>073-077>080-300500-
SOUTHWEST LOWER MICHIGAN

CITY           SKY/WX    TMP DP  RH WIND       PRES   REMARKS
BATTLE CREEK   CLOUDY    70  59  68 NE10      29.99S
BENTON HARBOR  PTCLDY    69  64  84 NE7       29.95F
BIG RAPIDS     PTCLDY    65  60  84 E3        30.04S
COLDWATER      HVY RAIN  69  69  99 E3        29.98F
FREMONT        CLOUDY    67  58  72 E10       30.02S
HOLLAND        LGT RAIN  67  60  78 E8        29.99F
GRAND RAPIDS   LGT RAIN  65  59  81 E12       30.01S
IONIA          CLOUDY    64  58  83 NE5       30.01S
KALAMAZOO      CLOUDY    71  58  63 VRB3      29.97F
LUDINGTON      MOCLDY    65  62  89 E3        30.02S
MARSHALL       CLOUDY    71  58  63 NE3       29.98S
MOUNT PLEASANT CLOUDY    64  55  70 N3        30.03F
MUSKEGON       CLOUDY    70  54  56 E8        30.00S
SOUTH HAVEN    CLOUDY    68  66  93 E5        29.96F
$$
MIZ016>042-300500-
NORTHERN LOWER MICHIGAN

CITY           SKY/WX    TMP DP  RH WIND       PRES   REMARKS
ALPENA         CLOUDY    58  55  90 CALM      30.07F
BEAVER ISLAND  CLEAR     57  57  98 CALM      30.07S
BELLAIRE       CLOUDY    57  52  84 CALM      30.07R
CADILLAC       CLOUDY    63  53  70 E7        30.07S
CHARLEVOIX     CLEAR     65  51  59 SE5       30.09S
FRANKFORT      CLOUDY    70  55  58 E7        30.03S
GAYLORD        CLOUDY    63  50  62 SE5       30.09S
GRAYLING       PTCLDY    56  49  78 CALM      30.09S
HARBOR SPRINGS CLEAR     60  54  79 CALM      30.07S
HOUGHTON LAKE  MOCLDY    58  52  80 N5        30.08S
OSCODA         CLEAR     59  55  86 N5        30.05S
PELLSTON       CLEAR     53  50  89 CALM      30.08S
ROGERS CITY    CLEAR     60  53  77 SW3       30.09S
TRAVERSE CITY  CLOUDY    69  50  50 E5        30.04S
$$
MIZ007>008-015-300500-
EASTERN UPPER MICHIGAN

CITY           SKY/WX    TMP DP  RH WIND       PRES   REMARKS
KINROSS        CLEAR     60  54  80 SW3       30.09R
MACKINAC ISLAN CLEAR     61  56  85 N5        30.08S
S. S. MARIE    CLEAR     64  55  72 W5        30.06F
$$
MIZ004>006-011>014-085-300500-
CENTRAL UPPER MICHIGAN

CITY           SKY/WX    TMP DP  RH WIND       PRES   REMARKS
MANISTIQUE     CLEAR     56  54  91 N5        30.07S
ESCANABA       CLEAR     57  54  88 CALM      30.05F
MENOMINEE      CLOUDY   N/A N/A N/A NE6       30.05
$$
MIZ001>003-009>011-084-300500-
WESTERN UPPER MICHIGAN

CITY           SKY/WX    TMP DP  RH WIND       PRES   REMARKS
IRON MOUNTAIN  CLEAR     58  52  80 N3        30.07S
HOUGHTON       CLEAR     59  51  75 SE5       30.08S
COPPER HARBOR    N/A     61  51  70 VRB3      30.07F
IRONWOOD       CLEAR     57  55  94 E6        30.06S
$$

ABBREVIATIONS USED IN REMARKS
   TC - TEMPERATURE IN CELSIUS
  WCI - WIND CHILL INDEX
   HX - HEAT INDEX
  VSB - VISIBILITY




USA.gov is the U.S. government's official web portal to all federal, state and local government web resources and services.